FW3092 Weather Reports


Display with metric or nautical units.
time (UTC)temp
F
wind
direction
speed
MPH
gust
MPH
rain 1hr
in
rain 24hr
in
rain mn
in
humidity
%
barometer
mb
20260906051557 58 284 1.0 3.0 0.00 0.00 0.00 91 958.5
20260906050115 58 269 2.0 4.0 0.00 0.00 0.00 91 958.6
20260906044557 58 269 2.0 4.0 0.00 0.00 0.00 90 958.4
20260906043056 58 283 1.0 4.0 0.00 0.00 0.00 90 958.8
20260906041553 58 281 1.0 3.0 0.00 0.00 0.00 90 958.5
20260906040105 58 273 2.0 4.0 0.00 0.00 0.00 90 958.5
20260906034600 58 274 0.0 3.0 0.00 0.00 0.00 89 958.5
20260906033049 59 265 0.0 4.0 0.00 0.00 0.00 89 958.4
20260906031551 59 296 1.0 4.0 0.00 0.00 0.00 89 958.3
20260906030047 59 271 0.0 2.0 0.00 0.00 0.00 89 958.3
20260906024546 59 270 0.0 3.0 0.00 0.00 0.00 88 958.2
20260906023050 60 355 0.0 2.0 0.00 0.00 0.00 88 958.2
20260906021557 60 355 0.0 2.0 0.00 0.00 0.00 88 958.2
20260906020054 61 11 0.0 1.0 0.00 0.00 0.00 87 958.2
20260906014552 61 5 0.0 3.0 0.00 0.00 0.00 87 958.1
20260906013044 61 314 0.0 2.0 0.00 0.00 0.00 86 957.9
20260906011542 62 314 0.0 2.0 0.00 0.00 0.00 86 958.0
20260906010042 62 355 0.0 7.0 0.00 0.00 0.00 86 957.9
20260906004540 63 317 0.0 4.0 0.00 0.00 0.00 86 957.8
20260906003044 63 289 0.0 3.0 0.00 0.00 0.00 85 957.7
20260906001539 63 336 0.0 2.0 0.00 0.00 0.00 85 957.6
20260906000038 64 97 0.0 3.0 0.00 0.00 0.00 84 957.5
20260905234537 65 303 1.0 5.0 0.00 0.00 0.00 83 957.5
20260905233041 65 43 0.0 3.0 0.00 0.00 0.00 82 957.5
20260905231536 66 327 0.0 4.0 0.00 0.00 0.00 81 957.6
20260905230035 66 68 1.0 3.0 0.00 0.00 0.00 81 957.7
20260905224534 66 130 0.0 5.0 0.00 0.00 0.00 81 957.5
20260905223039 67 246 3.0 6.0 0.00 0.00 0.00 80 957.6
20260905221543 67 267 3.0 7.0 0.00 0.00 0.00 78 957.3
20260905220034 69 246 1.0 5.0 0.00 0.00 0.00 76 957.3
20260905214532 69 53 1.0 3.0 0.00 0.00 0.00 77 957.0
20260905213034 70 265 3.0 8.0 0.00 0.00 0.00 76 956.9
20260905211542 71 256 3.0 7.0 0.00 0.00 0.00 74 956.9
20260905210033 71 306 2.0 6.0 0.00 0.00 0.00 75 956.8
20260905204530 71 355 2.0 6.0 0.00 0.00 0.00 75 956.7
20260905203033 70 152 1.0 6.0 0.00 0.00 0.00 76 956.8
20260905201535 70 280 1.0 4.0 0.00 0.00 0.00 75 956.8
20260905200045 70 338 1.0 4.0 0.00 0.00 0.00 75 956.9
20260905194532 70 284 2.0 6.0 0.00 0.00 0.00 74 956.7
20260905193027 71 5 0.0 0.0 0.00 0.00 0.00 73 956.8
20260905191527 71 5 0.0 3.0 0.00 0.00 0.00 71 956.8
20260905190026 71 19 1.0 4.0 0.00 0.00 0.00 69 956.8
20260905184532 72 262 3.0 6.0 0.00 0.00 0.00 68 956.8
20260905183025 72 286 2.0 7.0 0.00 0.00 0.00 69 956.8
20260905181523 72 281 1.0 7.0 0.00 0.00 0.00 70 956.9
20260905180020 71 294 2.0 5.0 0.00 0.00 0.00 72 956.9
20260905174520 70 24 2.0 6.0 0.00 0.00 0.00 72 956.9
20260905173019 70 5 2.0 5.0 0.00 0.00 0.00 73 956.9
20260905171535 69 286 3.0 7.0 0.00 0.00 0.00 75 957.1
20260905170022 69 279 1.0 9.0 0.00 0.00 0.00 73 957.1
20260905164517 71 360 2.0 6.0 0.00 0.00 0.00 72 957.2
20260905163018 70 74 0.0 8.0 0.00 0.00 0.00 74 957.0
20260905161517 70 248 1.0 5.0 0.00 0.00 0.00 74 957.3
20260905160024 69 355 1.0 8.0 0.00 0.00 0.00 76 957.3
20260905154513 69 68 2.0 7.0 0.00 0.00 0.00 76 957.3
20260905153010 67 355 1.0 5.0 0.00 0.00 0.00 78 957.3
20260905151504 67 333 2.0 9.0 0.00 0.00 0.00 79 957.4
20260905150002 67 282 1.0 8.0 0.00 0.00 0.00 81 957.4
20260905144559 66 336 3.0 6.0 0.00 0.00 0.00 81 957.3
20260905143057 66 243 3.0 9.0 0.00 0.00 0.00 82 957.3
20260905141556 65 63 2.0 9.0 0.00 0.00 0.00 83 957.3
20260905140053 65 84 2.0 8.0 0.00 0.00 0.00 84 957.4
20260905134553 64 139 0.0 5.0 0.00 0.00 0.00 86 957.3
20260905133046 64 281 1.0 8.0 0.00 0.00 0.00 86 957.1
20260905131542 62 211 1.0 5.0 0.00 0.00 0.00 89 957.1
20260905130037 61 44 1.0 5.0 0.00 0.00 0.00 91 957.3
20260905124543 60 293 2.0 7.0 0.00 0.00 0.00 91 957.5
20260905123029 59 266 2.0 8.0 0.00 0.00 0.00 91 957.5
20260905121524 58 290 2.0 4.0 0.00 0.00 0.00 91 957.6
20260905120021 58 286 1.0 3.0 0.00 0.00 0.00 91 957.2
20260905114520 58 339 0.0 4.0 0.00 0.00 0.00 91 957.0
20260905113019 57 288 1.0 3.0 0.00 0.00 0.00 91 957.0
20260905111517 57 309 0.0 5.0 0.00 0.00 0.00 91 956.9
20260905110015 57 271 2.0 5.0 0.00 0.00 0.00 91 956.9
20260905104523 57 255 2.0 7.0 0.00 0.00 0.00 91 956.4
20260905103013 58 268 1.0 7.0 0.00 0.00 0.00 91 956.4
20260905101512 58 284 1.0 4.0 0.00 0.00 0.00 91 956.2
20260905100012 58 287 0.0 2.0 0.00 0.00 0.00 91 956.1
20260905094510 58 311 1.0 7.0 0.00 0.00 0.00 91 956.0
20260905093010 57 296 2.0 3.0 0.00 0.00 0.00 91 956.0
20260905091508 57 301 0.0 1.0 0.00 0.00 0.00 90 955.9
20260905090009 57 301 1.0 3.0 0.00 0.00 0.00 90 956.1
20260905084511 58 322 1.0 3.0 0.00 0.00 0.00 90 956.0
20260905083004 58 326 0.0 2.0 0.00 0.00 0.00 90 956.0
20260905081502 58 269 0.0 2.0 0.00 0.00 0.00 90 956.1
20260905080002 58 320 1.0 4.0 0.00 0.00 0.00 90 956.2
20260905074600 58 273 1.0 4.0 0.00 0.00 0.00 89 956.2
20260905073100 58 298 0.0 3.0 0.00 0.00 0.00 89 956.3
20260905071602 59 342 1.0 3.0 0.00 0.00 0.00 89 956.4
20260905070054 59 311 1.0 4.0 0.00 0.00 0.00 89 956.6
20260905064557 60 272 0.0 3.0 0.00 0.00 0.00 88 956.6
20260905063051 60 258 0.0 4.0 0.00 0.00 0.00 88 956.7
20260905061606 60 241 2.0 6.0 0.00 0.00 0.00 88 956.9
20260905060047 61 275 3.0 7.0 0.00 0.00 0.00 87 956.8
20260905054547 61 269 3.0 8.0 0.00 0.00 0.00 86 956.9
20260905053050 61 257 3.0 7.0 0.00 0.00 0.00 86 956.9